Location: Wien
(48.2082°N, 16.3738°E)
Time: 10:05:51
(UTC+02:00)

Transit 4A - Pass Details

Date: 28 February 2024
Orbit: 871 x 971 km, 66.8° (Epoch: 24 April)

Event Time Altitude Azimuth Distance (km) Brightness Sun altitude
Exits shadow 03:44:01 17° 336° (NNW) 2,138 9.7 -29.5°
Maximum altitude 03:44:15 17° 338° (NNW) 2,135 9.8 -29.4°
Drops below altitude 10° 03:48:01 10° 18° (NNE) 2,572 10.7 -28.9°
Sets 03:51:30 0° 38° (NE) 3,497 11.8 -28.3°
